Etusivu
METAR-TAF:

METAR-TAF

Lentoasemat :

Oshima, Japani

Leveyspiiri: 34-47N, Pituuspiiri: 139-22E, korkeus merenpinnasta: 38 m

Tämänhetkinen sää

Tämä raportti tehtiin 13 tuntia ja 43 minuuttia sitten, kello 07.00 UTC
Tuuli 8 kn koillisesta
Lämpötila 10°C
Kosteus 53%
Ilmanpaine 1024 hPa
Näkyvyys 10 km tai enemmän
Muutamia pilviä 3000 ft:n korkeudessa
Hajonneita pilviä

METAR: RJTO 060700Z 04008KT 9999 FEW030 BKN/// 10/01 Q1024

Aika: 05:43 (20:43 UTC)


TAF: puuttuu

Säähavainnot ja -ennusteet yli 4000 lentoasemalta (METAR- ja TAF-raportit).

Käytössä olevat sääasemat on merkitty karttaan keltaisilla ja punaisilla pisteillä.

Aseta hiiri pisteen päälle nähdäksesi sääaseman nimen.

Klikkaa sitten nähdäksesi säähavainnot ja -ennusteet.

Kartan vaihtaminen: klikkaa mustalla rastilla varustettuja vihreitä pisteitä, niin voit zoomata sisään; viivalla varustettua vihreää pistettä, niin voit zoomata ulos tai vihreitä nuolia, niin pääset viereisille kartoille.


METAR-TAF: